Time,TemperatureF,DewpointF,PressureIn,WindDirection,WindDirectionDegrees,WindSpeedMPH,WindSpeedGustMPH,Humidity,HourlyPrecipIn,Conditions,Clouds,dailyrainin,SoftwareType,DateUTC
2013-03-22 00:04:00,53.6,-6.3,29.59,SW,219,0.0,0.0,8,0.00,,---,0.00,VWS V14.01,2013-03-22 07:04:00,
2013-03-22 00:09:00,54.3,-5.8,29.59,SW,219,0.0,0.0,8,0.00,,---,0.00,VWS V14.01,2013-03-22 07:09:00,
2013-03-22 00:14:00,53.6,-6.3,29.59,SW,219,0.0,0.0,8,0.00,,---,0.00,VWS V14.01,2013-03-22 07:14:00,
2013-03-22 00:19:00,53.4,-6.4,29.59,SW,219,0.0,0.0,8,0.00,,---,0.00,VWS V14.01,2013-03-22 07:19:00,
2013-03-22 00:24:00,52.7,-7.0,29.59,SW,219,0.0,0.0,8,0.00,,---,0.00,VWS V14.01,2013-03-22 07:24:00,
2013-03-22 00:29:00,52.2,-7.4,29.59,SW,219,0.0,0.0,8,0.00,,---,0.00,VWS V14.01,2013-03-22 07:29:00,
2013-03-22 00:34:00,52.5,-7.1,29.59,SW,219,0.0,0.0,8,0.00,,---,0.00,VWS V14.01,2013-03-22 07:34:00,
2013-03-22 00:40:00,52.7,-7.0,29.59,WNW,298,0.0,0.0,8,0.00,,---,0.00,VWS V14.01,2013-03-22 07:40:00,
2013-03-22 00:45:00,52.7,-7.0,29.59,West,259,0.0,0.0,8,0.00,,---,0.00,VWS V14.01,2013-03-22 07:45:00,
2013-03-22 00:50:00,52.9,-6.8,29.59,SSW,193,0.0,0.0,8,0.00,,---,0.00,VWS V14.01,2013-03-22 07:50:00,
2013-03-22 00:55:00,52.5,-7.1,29.59,SSW,193,0.0,0.0,8,0.00,,---,0.00,VWS V14.01,2013-03-22 07:55:00,
2013-03-22 01:00:00,51.6,-5.4,29.59,SSW,193,0.0,0.0,9,0.00,,---,0.00,VWS V14.01,2013-03-22 08:00:00,
2013-03-22 01:05:00,51.1,-5.8,29.59,SSW,193,0.0,0.0,9,0.00,,---,0.00,VWS V14.01,2013-03-22 08:05:00,
2013-03-22 01:11:00,51.1,-5.8,29.59,SSW,193,0.0,0.0,9,0.00,,---,0.00,VWS V14.01,2013-03-22 08:11:00,
2013-03-22 01:16:00,50.2,-6.5,29.59,SSW,193,0.0,0.0,9,0.00,,---,0.00,VWS V14.01,2013-03-22 08:16:00,
2013-03-22 01:21:00,49.6,-6.9,29.59,SSW,193,0.0,0.0,9,0.00,,---,0.00,VWS V14.01,2013-03-22 08:21:00,
2013-03-22 01:26:00,49.3,-7.2,29.59,SSW,193,0.0,0.0,9,0.00,,---,0.00,VWS V14.01,2013-03-22 08:26:00,
2013-03-22 01:31:00,49.3,-7.2,29.59,SSW,193,0.0,0.0,9,0.00,,---,0.00,VWS V14.01,2013-03-22 08:31:00,
2013-03-22 01:36:00,49.3,-7.2,29.59,SSW,193,0.0,0.0,9,0.00,,---,0.00,VWS V14.01,2013-03-22 08:36:00,
2013-03-22 01:41:00,48.7,-7.6,29.59,SSW,193,0.0,0.0,9,0.00,,---,0.00,VWS V14.01,2013-03-22 08:41:00,
2013-03-22 01:47:00,49.1,-7.3,29.59,SSW,193,0.0,0.0,9,0.00,,---,0.00,VWS V14.01,2013-03-22 08:47:00,
2013-03-22 01:52:00,48.9,-7.4,29.59,SSW,193,0.0,0.0,9,0.00,,---,0.00,VWS V14.01,2013-03-22 08:52:00,
2013-03-22 01:57:00,48.0,-8.1,29.59,SSW,193,0.0,0.0,9,0.00,,---,0.00,VWS V14.01,2013-03-22 08:57:00,
2013-03-22 02:02:00,47.8,-8.3,29.59,SSW,193,0.0,0.0,9,0.00,,---,0.00,VWS V14.01,2013-03-22 09:02:00,
2013-03-22 02:07:00,47.7,-8.4,29.59,SSW,193,0.0,0.0,9,0.00,,---,0.00,VWS V14.01,2013-03-22 09:07:00,
2013-03-22 02:12:00,47.7,-8.4,29.59,SSW,193,0.0,0.0,9,0.00,,---,0.00,VWS V14.01,2013-03-22 09:12:00,
2013-03-22 02:17:00,48.4,-7.8,29.59,SSW,193,0.0,0.0,9,0.00,,---,0.00,VWS V14.01,2013-03-22 09:17:00,
2013-03-22 02:23:00,48.2,-8.0,29.59,SSW,193,0.0,0.0,9,0.00,,---,0.00,VWS V14.01,2013-03-22 09:23:00,
2013-03-22 02:28:00,48.2,-8.0,29.59,SSW,207,0.0,0.0,9,0.00,,---,0.00,VWS V14.01,2013-03-22 09:28:00,
2013-03-22 02:33:00,48.0,-8.1,29.59,SW,220,0.0,0.0,9,0.00,,---,0.00,VWS V14.01,2013-03-22 09:33:00,
2013-03-22 02:38:00,47.8,-8.3,29.59,SW,221,0.0,0.0,9,0.00,,---,0.00,VWS V14.01,2013-03-22 09:38:00,
2013-03-22 02:43:00,47.1,-8.8,29.59,SW,221,0.0,0.0,9,0.00,,---,0.00,VWS V14.01,2013-03-22 09:43:00,
2013-03-22 02:48:00,46.8,-9.1,29.59,SW,225,0.0,0.0,9,0.00,,---,0.00,VWS V14.01,2013-03-22 09:48:00,
2013-03-22 02:53:00,46.4,-9.4,29.59,SW,225,0.0,0.0,9,0.00,,---,0.00,VWS V14.01,2013-03-22 09:53:00,
2013-03-22 02:59:00,46.2,-7.4,29.59,SW,225,0.0,0.0,10,0.00,,---,0.00,VWS V14.01,2013-03-22 09:59:00,
2013-03-22 03:04:00,46.2,-7.4,29.59,SW,225,0.0,0.0,10,0.00,,---,0.00,VWS V14.01,2013-03-22 10:04:00,
2013-03-22 03:09:00,46.0,-7.5,29.56,SW,225,0.0,0.0,10,0.00,,---,0.00,VWS V14.01,2013-03-22 10:09:00,
2013-03-22 03:14:00,45.7,-7.8,29.56,SW,225,0.0,0.0,10,0.00,,---,0.00,VWS V14.01,2013-03-22 10:14:00,
2013-03-22 03:19:00,46.0,-7.5,29.56,SW,225,0.0,0.0,10,0.00,,---,0.00,VWS V14.01,2013-03-22 10:19:00,
2013-03-22 03:24:00,46.8,-9.1,29.56,SW,225,0.0,0.0,9,0.00,,---,0.00,VWS V14.01,2013-03-22 10:24:00,
2013-03-22 03:29:00,46.9,-8.9,29.56,SSW,212,0.0,0.0,9,0.00,,---,0.00,VWS V14.01,2013-03-22 10:29:00,
2013-03-22 03:34:00,46.6,-9.2,29.56,SSW,212,0.0,0.0,9,0.00,,---,0.00,VWS V14.01,2013-03-22 10:34:00,
2013-03-22 03:39:00,46.0,-7.5,29.56,SSW,212,0.0,0.0,10,0.00,,---,0.00,VWS V14.01,2013-03-22 10:39:00,
2013-03-22 03:45:00,45.7,-7.8,29.56,SSW,212,0.0,0.0,10,0.00,,---,0.00,VWS V14.01,2013-03-22 10:45:00,
2013-03-22 03:50:00,45.1,-8.2,29.56,SSW,212,0.0,0.0,10,0.00,,---,0.00,VWS V14.01,2013-03-22 10:50:00,
2013-03-22 03:55:00,44.8,-8.5,29.56,SSW,212,0.0,0.0,10,0.00,,---,0.00,VWS V14.01,2013-03-22 10:55:00,
2013-03-22 04:00:00,44.6,-8.6,29.56,SSW,212,0.0,0.0,10,0.00,,---,0.00,VWS V14.01,2013-03-22 11:00:00,
2013-03-22 04:05:00,44.2,-8.9,29.56,SSW,212,0.0,0.0,10,0.00,,---,0.00,VWS V14.01,2013-03-22 11:05:00,
2013-03-22 04:10:00,44.1,-9.0,29.56,SSW,212,0.0,0.0,10,0.00,,---,0.00,VWS V14.01,2013-03-22 11:10:00,
2013-03-22 04:15:00,43.5,-9.4,29.56,SSW,212,0.0,0.0,10,0.00,,---,0.00,VWS V14.01,2013-03-22 11:15:00,
2013-03-22 04:20:00,43.5,-9.4,29.56,SSW,212,0.0,0.0,10,0.00,,---,0.00,VWS V14.01,2013-03-22 11:20:00,
2013-03-22 04:25:00,44.6,-8.6,29.56,SSW,212,0.0,0.0,10,0.00,,---,0.00,VWS V14.01,2013-03-22 11:25:00,
2013-03-22 04:30:00,44.2,-8.9,29.56,SSW,212,0.0,0.0,10,0.00,,---,0.00,VWS V14.01,2013-03-22 11:30:00,
2013-03-22 04:35:00,43.3,-9.6,29.56,SSW,212,0.0,0.0,10,0.00,,---,0.00,VWS V14.01,2013-03-22 11:35:00,
2013-03-22 04:40:00,43.0,-9.9,29.56,SSW,212,0.0,0.0,10,0.00,,---,0.00,VWS V14.01,2013-03-22 11:40:00,
2013-03-22 04:45:00,42.8,-10.0,29.56,SSW,212,0.0,0.0,10,0.00,,---,0.00,VWS V14.01,2013-03-22 11:45:00,
2013-03-22 04:51:00,43.0,-9.9,29.56,SSW,212,0.0,0.0,10,0.00,,---,0.00,VWS V14.01,2013-03-22 11:51:00,
2013-03-22 04:56:00,43.2,-9.7,29.56,SSW,212,0.0,0.0,10,0.00,,---,0.00,VWS V14.01,2013-03-22 11:56:00,
2013-03-22 05:01:00,43.0,-9.9,29.56,SSW,212,0.0,0.0,10,0.00,,---,0.00,VWS V14.01,2013-03-22 12:01:00,
2013-03-22 05:06:00,43.0,-9.9,29.56,SSW,212,0.0,0.0,10,0.00,,---,0.00,VWS V14.01,2013-03-22 12:06:00,
2013-03-22 05:11:00,43.0,-9.9,29.56,SSW,212,0.0,0.0,10,0.00,,---,0.00,VWS V14.01,2013-03-22 12:11:00,
2013-03-22 05:16:00,42.8,-10.0,29.56,SSW,212,0.0,0.0,10,0.00,,---,0.00,VWS V14.01,2013-03-22 12:16:00,
2013-03-22 05:21:00,43.0,-9.9,29.56,SSW,212,0.0,0.0,10,0.00,,---,0.00,VWS V14.01,2013-03-22 12:21:00,
2013-03-22 05:27:00,43.3,-9.6,29.56,SSW,212,0.0,0.0,10,0.00,,---,0.00,VWS V14.01,2013-03-22 12:27:00,
2013-03-22 05:32:00,43.3,-9.6,29.56,SSW,212,0.0,0.0,10,0.00,,---,0.00,VWS V14.01,2013-03-22 12:32:00,
2013-03-22 05:37:00,43.3,-9.6,29.56,SSW,212,0.0,0.0,10,0.00,,---,0.00,VWS V14.01,2013-03-22 12:37:00,
2013-03-22 05:42:00,43.2,-9.7,29.56,SSW,212,0.0,0.0,10,0.00,,---,0.00,VWS V14.01,2013-03-22 12:42:00,
2013-03-22 05:47:00,42.4,-8.4,29.56,SSW,212,0.0,0.0,11,0.00,,---,0.00,VWS V14.01,2013-03-22 12:47:00,
2013-03-22 05:52:00,42.4,-8.4,29.56,SSW,212,0.0,0.0,11,0.00,,---,0.00,VWS V14.01,2013-03-22 12:52:00,
2013-03-22 05:57:00,42.4,-8.4,29.56,SSW,212,0.0,0.0,11,0.00,,---,0.00,VWS V14.01,2013-03-22 12:57:00,
2013-03-22 06:02:00,42.1,-8.6,29.56,SSW,212,0.0,0.0,11,0.00,,---,0.00,VWS V14.01,2013-03-22 13:02:00,
2013-03-22 06:08:00,41.5,-9.1,29.56,SSW,212,0.0,0.0,11,0.00,,---,0.00,VWS V14.01,2013-03-22 13:08:00,
2013-03-22 06:13:00,41.5,-9.1,29.59,SSW,212,0.0,0.0,11,0.00,,---,0.00,VWS V14.01,2013-03-22 13:13:00,
2013-03-22 06:18:00,41.9,-8.8,29.59,SSW,212,0.0,0.0,11,0.00,,---,0.00,VWS V14.01,2013-03-22 13:18:00,
2013-03-22 06:23:00,41.9,-8.8,29.59,SSW,212,0.0,0.0,11,0.00,,---,0.00,VWS V14.01,2013-03-22 13:23:00,
2013-03-22 06:28:00,41.7,-8.9,29.59,SSW,212,0.0,0.0,11,0.00,,---,0.00,VWS V14.01,2013-03-22 13:28:00,
2013-03-22 06:33:00,41.5,-9.1,29.59,SSW,212,0.0,0.0,11,0.00,,---,0.00,VWS V14.01,2013-03-22 13:33:00,
2013-03-22 06:38:00,41.5,-9.1,29.59,SSW,212,0.0,0.0,11,0.00,,---,0.00,VWS V14.01,2013-03-22 13:38:00,
2013-03-22 06:43:00,41.4,-9.2,29.59,SSW,212,0.0,0.0,11,0.00,,---,0.00,VWS V14.01,2013-03-22 13:43:00,
2013-03-22 06:48:00,42.1,-8.6,29.59,SSW,212,0.0,0.0,11,0.00,,---,0.00,VWS V14.01,2013-03-22 13:48:00,
2013-03-22 06:53:00,42.4,-8.4,29.59,West,268,0.0,0.0,11,0.00,,---,0.00,VWS V14.01,2013-03-22 13:53:00,
2013-03-22 06:58:00,43.0,-9.9,29.59,WSW,258,0.0,0.0,10,0.00,,---,0.00,VWS V14.01,2013-03-22 13:58:00,
2013-03-22 07:03:00,43.5,-9.4,29.59,WSW,258,0.0,0.0,10,0.00,,---,0.00,VWS V14.01,2013-03-22 14:03:00,
2013-03-22 07:08:00,44.2,-8.9,29.59,WSW,258,0.0,0.0,10,0.00,,---,0.00,VWS V14.01,2013-03-22 14:08:00,
2013-03-22 07:13:00,45.1,-8.2,29.59,WSW,258,0.0,0.0,10,0.00,,---,0.00,VWS V14.01,2013-03-22 14:13:00,
2013-03-22 07:19:00,46.0,-7.5,29.59,WSW,258,0.0,0.0,10,0.00,,---,0.00,VWS V14.01,2013-03-22 14:19:00,
2013-03-22 07:24:00,46.9,-8.9,29.59,WNW,285,0.0,0.0,9,0.00,,---,0.00,VWS V14.01,2013-03-22 14:24:00,
2013-03-22 07:29:00,47.8,-8.3,29.59,NW,307,0.0,0.0,9,0.00,,---,0.00,VWS V14.01,2013-03-22 14:29:00,
2013-03-22 07:34:00,48.2,-8.0,29.59,NW,304,0.0,0.0,9,0.00,,---,0.00,VWS V14.01,2013-03-22 14:34:00,
2013-03-22 07:39:00,49.1,-7.3,29.59,WNW,285,0.0,0.0,9,0.00,,---,0.00,VWS V14.01,2013-03-22 14:39:00,
2013-03-22 07:44:00,50.0,-6.6,29.62,WNW,287,0.0,0.0,9,0.00,,---,0.00,VWS V14.01,2013-03-22 14:44:00,
2013-03-22 07:49:00,50.5,-6.2,29.62,WNW,287,0.0,0.0,9,0.00,,---,0.00,VWS V14.01,2013-03-22 14:49:00,
2013-03-22 07:54:00,50.9,-5.9,29.62,NNW,328,0.0,0.0,9,0.00,,---,0.00,VWS V14.01,2013-03-22 14:54:00,
2013-03-22 07:59:00,51.4,-5.5,29.62,NNW,334,0.0,0.0,9,0.00,,---,0.00,VWS V14.01,2013-03-22 14:59:00,
2013-03-22 08:04:00,51.8,-7.7,29.62,NW,320,0.0,0.0,8,0.00,,---,0.00,VWS V14.01,2013-03-22 15:04:00,
2013-03-22 08:10:00,52.2,-7.4,29.62,NNW,330,0.0,0.0,8,0.00,,---,0.00,VWS V14.01,2013-03-22 15:10:00,
2013-03-22 08:15:00,52.3,-7.2,29.62,NNW,327,0.0,0.0,8,0.00,,---,0.00,VWS V14.01,2013-03-22 15:15:00,
2013-03-22 08:20:00,53.1,-6.7,29.62,NNW,330,0.0,0.0,8,0.00,,---,0.00,VWS V14.01,2013-03-22 15:20:00,
2013-03-22 08:25:00,53.4,-6.4,29.62,NNW,341,0.0,0.0,8,0.00,,---,0.00,VWS V14.01,2013-03-22 15:25:00,
2013-03-22 08:30:00,53.8,-6.2,29.62,NW,324,0.0,0.0,8,0.00,,---,0.00,VWS V14.01,2013-03-22 15:30:00,
2013-03-22 08:35:00,54.3,-5.8,29.62,NW,324,0.0,0.0,8,0.00,,---,0.00,VWS V14.01,2013-03-22 15:35:00,
2013-03-22 08:41:00,54.9,-5.3,29.62,NW,326,0.0,0.0,8,0.00,,---,0.00,VWS V14.01,2013-03-22 15:41:00,
2013-03-22 08:46:00,55.4,-7.7,29.62,NNW,332,0.0,0.0,7,0.00,,---,0.00,VWS V14.01,2013-03-22 15:46:00,
2013-03-22 08:51:00,55.8,-7.4,29.62,WNW,289,0.0,0.0,7,0.00,,---,0.00,VWS V14.01,2013-03-22 15:51:00,
2013-03-22 08:57:00,56.1,-7.2,29.62,NW,309,0.0,0.0,7,0.00,,---,0.00,VWS V14.01,2013-03-22 15:57:00,
2013-03-22 09:02:00,56.7,-6.8,29.62,NW,321,0.0,0.0,7,0.00,,---,0.00,VWS V14.01,2013-03-22 16:02:00,
2013-03-22 09:07:00,57.4,-6.2,29.62,NNW,343,0.0,0.0,7,0.00,,---,0.00,VWS V14.01,2013-03-22 16:07:00,
2013-03-22 09:12:00,57.7,-5.9,29.62,North,8,0.0,3.6,7,0.00,,---,0.00,VWS V14.01,2013-03-22 16:12:00,
2013-03-22 09:17:00,58.1,-5.7,29.62,NNW,327,2.7,2.7,7,0.00,,---,0.00,VWS V14.01,2013-03-22 16:17:00,
2013-03-22 09:23:00,58.5,-5.4,29.62,NNW,340,4.9,4.9,7,0.00,,---,0.00,VWS V14.01,2013-03-22 16:23:00,
2013-03-22 09:28:00,59.2,-4.9,29.62,WNW,291,0.0,0.0,7,0.00,,---,0.00,VWS V14.01,2013-03-22 16:28:00,
2013-03-22 09:33:00,60.1,-4.2,29.62,North,0,7.2,7.2,7,0.00,,---,0.00,VWS V14.01,2013-03-22 16:33:00,
2013-03-22 09:38:00,60.1,-4.2,29.62,NNW,335,6.3,6.3,7,0.00,,---,0.00,VWS V14.01,2013-03-22 16:38:00,
2013-03-22 09:43:00,60.1,-4.2,29.62,NNW,331,2.7,2.7,7,0.00,,---,0.00,VWS V14.01,2013-03-22 16:43:00,
2013-03-22 09:48:00,61.0,-6.7,29.62,North,357,0.0,0.0,6,0.00,,---,0.00,VWS V14.01,2013-03-22 16:48:00,
2013-03-22 09:53:00,61.3,-6.5,29.62,North,10,3.6,4.0,6,0.00,,---,0.00,VWS V14.01,2013-03-22 16:53:00,
2013-03-22 09:59:00,61.7,-6.2,29.62,North,8,0.0,3.1,6,0.00,,---,0.00,VWS V14.01,2013-03-22 16:59:00,
2013-03-22 10:04:00,61.7,-6.2,29.62,NNW,335,4.9,5.4,6,0.00,,---,0.00,VWS V14.01,2013-03-22 17:04:00,
2013-03-22 10:09:00,61.7,-6.2,29.62,North,0,2.7,5.8,6,0.00,,---,0.00,VWS V14.01,2013-03-22 17:09:00,
2013-03-22 10:14:00,61.5,-6.3,29.62,North,353,0.0,0.0,6,0.00,,---,0.00,VWS V14.01,2013-03-22 17:14:00,
2013-03-22 10:19:00,61.3,-6.5,29.62,North,353,0.0,0.0,6,0.00,,---,0.00,VWS V14.01,2013-03-22 17:19:00,
2013-03-22 10:24:00,61.7,-6.2,29.62,NNW,329,0.0,3.6,6,0.00,,---,0.00,VWS V14.01,2013-03-22 17:24:00,
2013-03-22 10:30:00,62.6,-5.6,29.62,East,85,0.0,0.0,6,0.00,,---,0.00,VWS V14.01,2013-03-22 17:30:00,
2013-03-22 10:35:00,63.7,-4.8,29.62,NNE,20,5.4,5.4,6,0.00,,---,0.00,VWS V14.01,2013-03-22 17:35:00,
2013-03-22 10:40:00,64.0,-4.5,29.62,SE,136,0.0,0.0,6,0.00,,---,0.00,VWS V14.01,2013-03-22 17:40:00,
2013-03-22 10:45:00,64.8,-7.8,29.62,East,83,0.0,0.0,5,0.00,,---,0.00,VWS V14.01,2013-03-22 17:45:00,
2013-03-22 10:50:00,65.5,-7.2,29.62,NE,56,0.0,5.8,5,0.00,,---,0.00,VWS V14.01,2013-03-22 17:50:00,
2013-03-22 10:55:00,65.5,-7.2,29.62,NNE,30,4.0,4.0,5,0.00,,---,0.00,VWS V14.01,2013-03-22 17:55:00,
2013-03-22 11:00:00,66.0,-6.9,29.62,ENE,77,2.7,2.7,5,0.00,,---,0.00,VWS V14.01,2013-03-22 18:00:00,
2013-03-22 11:05:00,66.6,-6.5,29.59,NE,36,3.6,3.6,5,0.00,,---,0.00,VWS V14.01,2013-03-22 18:05:00,
2013-03-22 11:11:00,66.9,-6.2,29.59,NE,56,4.0,5.4,5,0.00,,---,0.00,VWS V14.01,2013-03-22 18:11:00,
2013-03-22 11:17:00,66.9,-6.2,29.59,NE,34,0.0,0.0,5,0.00,,---,0.00,VWS V14.01,2013-03-22 18:17:00,
2013-03-22 11:22:00,66.7,-6.3,29.59,ENE,75,3.6,4.9,5,0.00,,---,0.00,VWS V14.01,2013-03-22 18:22:00,
2013-03-22 11:27:00,66.9,-6.2,29.59,SW,217,0.0,0.0,5,0.00,,---,0.00,VWS V14.01,2013-03-22 18:27:00,
2013-03-22 11:32:00,67.1,-6.1,29.59,ENE,71,4.9,5.8,5,0.00,,---,0.00,VWS V14.01,2013-03-22 18:32:00,
2013-03-22 11:37:00,67.1,-6.1,29.59,ENE,58,0.0,0.0,5,0.00,,---,0.00,VWS V14.01,2013-03-22 18:37:00,
2013-03-22 11:42:00,67.5,-5.8,29.59,SE,142,0.0,0.0,5,0.00,,---,0.00,VWS V14.01,2013-03-22 18:42:00,
2013-03-22 11:48:00,67.5,-5.8,29.59,NW,315,2.7,5.8,5,0.00,,---,0.00,VWS V14.01,2013-03-22 18:48:00,
2013-03-22 11:53:00,68.0,-5.4,29.59,North,11,5.8,5.8,5,0.00,,---,0.00,VWS V14.01,2013-03-22 18:53:00,
2013-03-22 11:58:00,68.2,-5.3,29.59,North,357,0.0,0.0,5,0.00,,---,0.00,VWS V14.01,2013-03-22 18:58:00,
2013-03-22 12:03:00,68.4,-5.2,29.59,ESE,110,3.6,4.0,5,0.00,,---,0.00,VWS V14.01,2013-03-22 19:03:00,
2013-03-22 12:08:00,68.9,-4.8,29.59,ENE,74,0.0,4.0,5,0.00,,---,0.00,VWS V14.01,2013-03-22 19:08:00,
2013-03-22 12:13:00,69.6,-4.3,29.59,North,5,0.0,0.0,5,0.00,,---,0.00,VWS V14.01,2013-03-22 19:13:00,
2013-03-22 12:18:00,69.6,-4.3,29.59,NNE,19,3.6,3.6,5,0.00,,---,0.00,VWS V14.01,2013-03-22 19:18:00,
2013-03-22 12:24:00,69.1,-4.7,29.56,West,272,0.0,0.0,5,0.00,,---,0.00,VWS V14.01,2013-03-22 19:24:00,
2013-03-22 12:29:00,69.4,-4.4,29.56,SE,137,5.4,5.4,5,0.00,,---,0.00,VWS V14.01,2013-03-22 19:29:00,
2013-03-22 12:34:00,69.6,-4.3,29.56,SSE,158,5.4,6.3,5,0.00,,---,0.00,VWS V14.01,2013-03-22 19:34:00,
2013-03-22 12:39:00,69.8,-8.8,29.56,ESE,107,5.4,5.4,4,0.00,,---,0.00,VWS V14.01,2013-03-22 19:39:00,
2013-03-22 12:44:00,69.8,-8.8,29.56,ESE,115,0.0,0.0,4,0.00,,---,0.00,VWS V14.01,2013-03-22 19:44:00,
2013-03-22 12:49:00,70.2,-8.5,29.56,NE,34,4.0,4.5,4,0.00,,---,0.00,VWS V14.01,2013-03-22 19:49:00,
2013-03-22 12:54:00,70.2,-8.5,29.56,ENE,66,0.0,0.0,4,0.00,,---,0.00,VWS V14.01,2013-03-22 19:54:00,
2013-03-22 13:00:00,70.0,-8.6,29.56,East,79,5.4,5.4,4,0.00,,---,0.00,VWS V14.01,2013-03-22 20:00:00,
2013-03-22 13:05:00,69.8,-8.8,29.56,East,83,4.9,4.9,4,0.00,,---,0.00,VWS V14.01,2013-03-22 20:05:00,
2013-03-22 13:10:00,70.2,-8.5,29.56,SSE,152,3.1,3.6,4,0.00,,---,0.00,VWS V14.01,2013-03-22 20:10:00,
2013-03-22 13:15:00,69.8,-8.8,29.56,East,97,0.0,0.0,4,0.00,,---,0.00,VWS V14.01,2013-03-22 20:15:00,
2013-03-22 13:20:00,69.6,-4.3,29.56,NE,51,4.0,4.0,5,0.00,,---,0.00,VWS V14.01,2013-03-22 20:20:00,
2013-03-22 13:25:00,69.4,-4.4,29.56,NE,51,3.1,3.1,5,0.00,,---,0.00,VWS V14.01,2013-03-22 20:25:00,
2013-03-22 13:30:00,70.3,-8.4,29.56,East,96,4.0,4.0,4,0.00,,---,0.00,VWS V14.01,2013-03-22 20:30:00,
2013-03-22 13:36:00,70.3,-8.4,29.53,SE,141,0.0,0.0,4,0.00,,---,0.00,VWS V14.01,2013-03-22 20:36:00,
2013-03-22 13:41:00,70.3,-8.4,29.53,East,88,3.6,3.6,4,0.00,,---,0.00,VWS V14.01,2013-03-22 20:41:00,
2013-03-22 13:46:00,70.7,-8.1,29.53,East,88,4.0,4.0,4,0.00,,---,0.00,VWS V14.01,2013-03-22 20:46:00,
2013-03-22 13:51:00,70.5,-8.3,29.53,ESE,114,4.9,7.6,4,0.00,,---,0.00,VWS V14.01,2013-03-22 20:51:00,
2013-03-22 13:56:00,70.3,-8.4,29.53,ESE,102,0.0,0.0,4,0.00,,---,0.00,VWS V14.01,2013-03-22 20:56:00,
2013-03-22 14:01:00,70.7,-8.1,29.53,South,175,0.0,0.0,4,0.00,,---,0.00,VWS V14.01,2013-03-22 21:01:00,
2013-03-22 14:07:00,70.7,-8.1,29.53,SSW,211,0.0,0.0,4,0.00,,---,0.00,VWS V14.01,2013-03-22 21:07:00,
2013-03-22 14:12:00,70.3,-8.4,29.53,SSW,209,0.0,0.0,4,0.00,,---,0.00,VWS V14.01,2013-03-22 21:12:00,
2013-03-22 14:17:00,70.9,-8.0,29.53,SE,136,0.0,0.0,4,0.00,,---,0.00,VWS V14.01,2013-03-22 21:17:00,
2013-03-22 14:22:00,70.9,-8.0,29.53,SSE,164,0.0,0.0,4,0.00,,---,0.00,VWS V14.01,2013-03-22 21:22:00,
2013-03-22 14:27:00,70.0,-8.6,29.53,SSW,196,0.0,0.0,4,0.00,,---,0.00,VWS V14.01,2013-03-22 21:27:00,
2013-03-22 14:32:00,69.4,-4.4,29.53,SE,125,0.0,0.0,5,0.00,,---,0.00,VWS V14.01,2013-03-22 21:32:00,
2013-03-22 14:37:00,69.4,-4.4,29.53,SSE,149,0.0,0.0,5,0.00,,---,0.00,VWS V14.01,2013-03-22 21:37:00,
2013-03-22 14:42:00,70.0,-8.6,29.53,South,179,0.0,0.0,4,0.00,,---,0.00,VWS V14.01,2013-03-22 21:42:00,
2013-03-22 14:47:00,70.9,-8.0,29.53,SSE,159,0.0,0.0,4,0.00,,---,0.00,VWS V14.01,2013-03-22 21:47:00,
2013-03-22 14:52:00,70.9,-8.0,29.53,SSE,161,0.0,0.0,4,0.00,,---,0.00,VWS V14.01,2013-03-22 21:52:00,
2013-03-22 14:57:00,71.1,-7.9,29.53,SSE,160,0.0,0.0,4,0.00,,---,0.00,VWS V14.01,2013-03-22 21:57:00,
2013-03-22 15:03:00,71.2,-7.8,29.53,SSE,162,0.0,0.0,4,0.00,,---,0.00,VWS V14.01,2013-03-22 22:03:00,
2013-03-22 15:08:00,71.1,-7.9,29.53,SSE,158,0.0,0.0,4,0.00,,---,0.00,VWS V14.01,2013-03-22 22:08:00,
2013-03-22 15:13:00,71.1,-7.9,29.53,SSE,163,0.0,0.0,4,0.00,,---,0.00,VWS V14.01,2013-03-22 22:13:00,
2013-03-22 15:18:00,71.6,-7.5,29.53,SSE,155,0.0,0.0,4,0.00,,---,0.00,VWS V14.01,2013-03-22 22:18:00,
2013-03-22 15:23:00,71.4,-7.6,29.50,South,181,0.0,0.0,4,0.00,,---,0.00,VWS V14.01,2013-03-22 22:23:00,
2013-03-22 15:28:00,72.0,-7.3,29.50,SSE,147,0.0,0.0,4,0.00,,---,0.00,VWS V14.01,2013-03-22 22:28:00,
2013-03-22 15:33:00,72.5,-6.9,29.50,SE,141,0.0,0.0,4,0.00,,---,0.00,VWS V14.01,2013-03-22 22:33:00,
2013-03-22 15:38:00,72.5,-6.9,29.50,South,176,0.0,0.0,4,0.00,,---,0.00,VWS V14.01,2013-03-22 22:38:00,
2013-03-22 15:43:00,72.1,-7.1,29.50,South,170,0.0,0.0,4,0.00,,---,0.00,VWS V14.01,2013-03-22 22:43:00,
2013-03-22 15:48:00,71.8,-7.4,29.50,SW,225,0.0,0.0,4,0.00,,---,0.00,VWS V14.01,2013-03-22 22:48:00,
2013-03-22 15:54:00,71.8,-7.4,29.50,SSW,193,0.0,0.0,4,0.00,,---,0.00,VWS V14.01,2013-03-22 22:54:00,
2013-03-22 15:59:00,72.0,-7.3,29.50,SW,236,0.0,0.0,4,0.00,,---,0.00,VWS V14.01,2013-03-22 22:59:00,
2013-03-22 16:04:00,72.1,-7.1,29.50,SW,235,0.0,0.0,4,0.00,,---,0.00,VWS V14.01,2013-03-22 23:04:00,
2013-03-22 16:10:00,72.1,-7.1,29.50,SW,220,0.0,0.0,4,0.00,,---,0.00,VWS V14.01,2013-03-22 23:10:00,
2013-03-22 16:15:00,72.0,-7.3,29.50,SW,233,0.0,0.0,4,0.00,,---,0.00,VWS V14.01,2013-03-22 23:15:00,
2013-03-22 16:20:00,72.3,-7.0,29.50,SSW,204,0.0,0.0,4,0.00,,---,0.00,VWS V14.01,2013-03-22 23:20:00,
2013-03-22 16:25:00,72.5,-6.9,29.50,WSW,246,0.0,0.0,4,0.00,,---,0.00,VWS V14.01,2013-03-22 23:25:00,
2013-03-22 16:30:00,72.0,-7.3,29.53,SW,217,0.0,0.0,4,0.00,,---,0.00,VWS V14.01,2013-03-22 23:30:00,
2013-03-22 16:36:00,72.0,-7.3,29.53,WSW,244,0.0,0.0,4,0.00,,---,0.00,VWS V14.01,2013-03-22 23:36:00,
2013-03-22 16:41:00,72.3,-7.0,29.50,West,278,0.0,0.0,4,0.00,,---,0.00,VWS V14.01,2013-03-22 23:41:00,
2013-03-22 16:47:00,72.3,-7.0,29.50,WSW,254,0.0,0.0,4,0.00,,---,0.00,VWS V14.01,2013-03-22 23:47:00,
2013-03-22 16:52:00,72.1,-7.1,29.50,SW,229,0.0,0.0,4,0.00,,---,0.00,VWS V14.01,2013-03-22 23:52:00,
2013-03-22 16:57:00,71.4,-7.6,29.50,SW,223,0.0,0.0,4,0.00,,---,0.00,VWS V14.01,2013-03-22 23:57:00,
2013-03-22 17:02:00,71.2,-7.8,29.50,SW,223,0.0,0.0,4,0.00,,---,0.00,VWS V14.01,2013-03-23 00:02:00,
2013-03-22 17:07:00,71.2,-7.8,29.50,WSW,250,0.0,0.0,4,0.00,,---,0.00,VWS V14.01,2013-03-23 00:07:00,
2013-03-22 17:13:00,71.8,-7.4,29.50,SSW,208,0.0,0.0,4,0.00,,---,0.00,VWS V14.01,2013-03-23 00:13:00,
2013-03-22 17:18:00,71.4,-7.6,29.50,South,180,0.0,0.0,4,0.00,,---,0.00,VWS V14.01,2013-03-23 00:18:00,
2013-03-22 17:23:00,71.4,-7.6,29.53,WSW,243,0.0,0.0,4,0.00,,---,0.00,VWS V14.01,2013-03-23 00:23:00,
2013-03-22 17:28:00,71.2,-7.8,29.53,South,179,0.0,0.0,4,0.00,,---,0.00,VWS V14.01,2013-03-23 00:28:00,
2013-03-22 17:33:00,71.4,-7.6,29.53,West,262,0.0,0.0,4,0.00,,---,0.00,VWS V14.01,2013-03-23 00:33:00,
2013-03-22 17:38:00,71.1,-7.9,29.50,SW,214,0.0,0.0,4,0.00,,---,0.00,VWS V14.01,2013-03-23 00:38:00,
2013-03-22 17:43:00,70.3,-8.4,29.50,SW,222,0.0,0.0,4,0.00,,---,0.00,VWS V14.01,2013-03-23 00:43:00,
2013-03-22 17:49:00,70.0,-8.6,29.50,WSW,238,0.0,0.0,4,0.00,,---,0.00,VWS V14.01,2013-03-23 00:49:00,
2013-03-22 17:54:00,69.8,-8.8,29.53,SW,224,0.0,0.0,4,0.00,,---,0.00,VWS V14.01,2013-03-23 00:54:00,
2013-03-22 17:59:00,69.4,-4.4,29.53,SSW,203,0.0,0.0,5,0.00,,---,0.00,VWS V14.01,2013-03-23 00:59:00,
2013-03-22 18:04:00,69.1,-4.7,29.53,SSW,198,0.0,0.0,5,0.00,,---,0.00,VWS V14.01,2013-03-23 01:04:00,
2013-03-22 18:09:00,68.7,-4.9,29.53,SW,236,0.0,0.0,5,0.00,,---,0.00,VWS V14.01,2013-03-23 01:09:00,
2013-03-22 18:15:00,68.4,-5.2,29.53,SW,229,0.0,0.0,5,0.00,,---,0.00,VWS V14.01,2013-03-23 01:15:00,
2013-03-22 18:20:00,68.0,-5.4,29.53,SSW,209,0.0,0.0,5,0.00,,---,0.00,VWS V14.01,2013-03-23 01:20:00,
2013-03-22 18:25:00,68.0,-5.4,29.53,WSW,247,0.0,0.0,5,0.00,,---,0.00,VWS V14.01,2013-03-23 01:25:00,
2013-03-22 18:30:00,68.0,-5.4,29.53,SW,218,0.0,0.0,5,0.00,,---,0.00,VWS V14.01,2013-03-23 01:30:00,
2013-03-22 18:35:00,67.8,-5.6,29.53,West,265,0.0,0.0,5,0.00,,---,0.00,VWS V14.01,2013-03-23 01:35:00,
2013-03-22 18:40:00,67.5,-5.8,29.53,SW,235,0.0,0.0,5,0.00,,---,0.00,VWS V14.01,2013-03-23 01:40:00,
2013-03-22 18:45:00,67.5,-5.8,29.53,SW,217,0.0,0.0,5,0.00,,---,0.00,VWS V14.01,2013-03-23 01:45:00,
2013-03-22 18:51:00,66.9,-6.2,29.53,WSW,256,0.0,0.0,5,0.00,,---,0.00,VWS V14.01,2013-03-23 01:51:00,
2013-03-22 18:56:00,66.4,-6.6,29.53,SW,232,0.0,0.0,5,0.00,,---,0.00,VWS V14.01,2013-03-23 01:56:00,
2013-03-22 19:01:00,66.0,-6.9,29.53,WSW,252,0.0,0.0,5,0.00,,---,0.00,VWS V14.01,2013-03-23 02:01:00,
2013-03-22 19:06:00,65.5,-7.2,29.56,West,275,5.4,5.4,5,0.00,,---,0.00,VWS V14.01,2013-03-23 02:06:00,
2013-03-22 19:11:00,64.2,-4.4,29.56,West,259,3.1,5.8,6,0.00,,---,0.00,VWS V14.01,2013-03-23 02:11:00,
2013-03-22 19:16:00,63.3,-5.0,29.56,WSW,257,4.0,4.0,6,0.00,,---,0.00,VWS V14.01,2013-03-23 02:16:00,
2013-03-22 19:22:00,62.4,-5.7,29.56,West,268,4.9,4.9,6,0.00,,---,0.00,VWS V14.01,2013-03-23 02:22:00,
2013-03-22 19:27:00,61.9,-6.1,29.56,WNW,290,4.9,5.8,6,0.00,,---,0.00,VWS V14.01,2013-03-23 02:27:00,
2013-03-22 19:32:00,61.7,-6.2,29.56,West,267,5.4,5.4,6,0.00,,---,0.00,VWS V14.01,2013-03-23 02:32:00,
2013-03-22 19:37:00,60.4,-4.0,29.56,WSW,251,5.8,5.8,7,0.00,,---,0.00,VWS V14.01,2013-03-23 02:37:00,
2013-03-22 19:43:00,60.3,-4.1,29.56,West,264,0.0,0.0,7,0.00,,---,0.00,VWS V14.01,2013-03-23 02:43:00,
2013-03-22 19:48:00,59.9,-4.3,29.56,SW,234,5.4,5.4,7,0.00,,---,0.00,VWS V14.01,2013-03-23 02:48:00,
2013-03-22 19:53:00,60.3,-4.1,29.56,WSW,256,6.3,6.3,7,0.00,,---,0.00,VWS V14.01,2013-03-23 02:53:00,
2013-03-22 19:58:00,61.0,-6.7,29.56,WSW,257,7.6,7.6,6,0.00,,---,0.00,VWS V14.01,2013-03-23 02:58:00,
2013-03-22 20:03:00,61.3,-6.5,29.56,WSW,258,3.6,5.4,6,0.00,,---,0.00,VWS V14.01,2013-03-23 03:03:00,
2013-03-22 20:08:00,61.0,-6.7,29.59,West,263,5.8,8.1,6,0.00,,---,0.00,VWS V14.01,2013-03-23 03:08:00,
2013-03-22 20:13:00,60.8,-6.9,29.59,West,260,5.4,5.8,6,0.00,,---,0.00,VWS V14.01,2013-03-23 03:13:00,
2013-03-22 20:18:00,60.4,-4.0,29.59,West,273,4.9,4.9,7,0.00,,---,0.00,VWS V14.01,2013-03-23 03:18:00,
2013-03-22 20:23:00,59.0,-5.0,29.59,WSW,255,5.4,5.4,7,0.00,,---,0.00,VWS V14.01,2013-03-23 03:23:00,
2013-03-22 20:29:00,58.6,-5.3,29.59,West,278,6.3,6.3,7,0.00,,---,0.00,VWS V14.01,2013-03-23 03:29:00,
2013-03-22 20:34:00,58.3,-5.6,29.59,West,262,5.8,5.8,7,0.00,,---,0.00,VWS V14.01,2013-03-23 03:34:00,
2013-03-22 20:39:00,58.1,-5.7,29.59,West,269,5.4,5.8,7,0.00,,---,0.00,VWS V14.01,2013-03-23 03:39:00,
2013-03-22 20:44:00,57.7,-5.9,29.59,West,266,6.3,6.3,7,0.00,,---,0.00,VWS V14.01,2013-03-23 03:44:00,
2013-03-22 20:49:00,57.4,-6.2,29.59,West,273,5.4,5.4,7,0.00,,---,0.00,VWS V14.01,2013-03-23 03:49:00,
2013-03-22 20:54:00,57.4,-6.2,29.59,West,270,0.0,0.0,7,0.00,,---,0.00,VWS V14.01,2013-03-23 03:54:00,
2013-03-22 21:00:00,57.0,-6.5,29.59,West,264,5.4,5.4,7,0.00,,---,0.00,VWS V14.01,2013-03-23 04:00:00,
2013-03-22 21:02:00,56.5,-6.9,29.59,West,260,0.0,5.4,7,0.00,,---,0.00,VWS V14.01,2013-03-23 04:02:00,
2013-03-22 21:03:00,56.3,-7.0,29.59,West,260,0.0,0.0,7,0.00,,---,0.00,VWS V14.01,2013-03-23 04:03:00,
2013-03-22 21:08:00,56.1,-7.2,29.62,West,268,4.0,4.0,7,0.00,,---,0.00,VWS V14.01,2013-03-23 04:08:00,
2013-03-22 21:13:00,56.1,-7.2,29.62,WSW,254,0.0,0.0,7,0.00,,---,0.00,VWS V14.01,2013-03-23 04:13:00,
2013-03-22 21:18:00,55.6,-7.6,29.62,West,262,3.6,3.6,7,0.00,,---,0.00,VWS V14.01,2013-03-23 04:18:00,
2013-03-22 21:23:00,55.4,-7.7,29.59,West,262,4.0,4.0,7,0.00,,---,0.00,VWS V14.01,2013-03-23 04:23:00,
2013-03-22 21:28:00,55.2,-5.1,29.59,WNW,285,3.6,3.6,8,0.00,,---,0.00,VWS V14.01,2013-03-23 04:28:00,
2013-03-22 21:33:00,55.9,-7.3,29.59,WNW,302,0.0,0.0,7,0.00,,---,0.00,VWS V14.01,2013-03-23 04:33:00,
2013-03-22 21:38:00,55.8,-7.4,29.62,WNW,300,0.0,0.0,7,0.00,,---,0.00,VWS V14.01,2013-03-23 04:38:00,
2013-03-22 21:44:00,54.9,-5.3,29.62,West,263,0.0,0.0,8,0.00,,---,0.00,VWS V14.01,2013-03-23 04:44:00,
2013-03-22 21:49:00,54.7,-5.5,29.62,SW,221,0.0,0.0,8,0.00,,---,0.00,VWS V14.01,2013-03-23 04:49:00,
2013-03-22 21:54:00,54.5,-5.6,29.62,SW,221,0.0,0.0,8,0.00,,---,0.00,VWS V14.01,2013-03-23 04:54:00,
2013-03-22 21:59:00,53.6,-6.3,29.62,SW,222,0.0,0.0,8,0.00,,---,0.00,VWS V14.01,2013-03-23 04:59:00,
2013-03-22 22:04:00,53.2,-6.6,29.62,SW,222,0.0,0.0,8,0.00,,---,0.00,VWS V14.01,2013-03-23 05:04:00,
2013-03-22 22:10:00,52.5,-7.1,29.62,SW,222,0.0,0.0,8,0.00,,---,0.00,VWS V14.01,2013-03-23 05:10:00,
2013-03-22 22:15:00,52.3,-7.2,29.62,SW,222,0.0,0.0,8,0.00,,---,0.00,VWS V14.01,2013-03-23 05:15:00,
2013-03-22 22:20:00,51.8,-7.7,29.62,SW,222,0.0,0.0,8,0.00,,---,0.00,VWS V14.01,2013-03-23 05:20:00,
2013-03-22 22:25:00,50.9,-5.9,29.62,SW,222,0.0,0.0,9,0.00,,---,0.00,VWS V14.01,2013-03-23 05:25:00,
2013-03-22 22:30:00,50.4,-6.3,29.62,WSW,248,0.0,0.0,9,0.00,,---,0.00,VWS V14.01,2013-03-23 05:30:00,
2013-03-22 22:35:00,50.4,-6.3,29.62,SW,214,5.8,5.8,9,0.00,,---,0.00,VWS V14.01,2013-03-23 05:35:00,
2013-03-22 22:40:00,50.7,-6.1,29.62,SW,216,0.0,0.0,9,0.00,,---,0.00,VWS V14.01,2013-03-23 05:40:00,
2013-03-22 22:45:00,51.3,-5.6,29.62,WSW,257,0.0,0.0,9,0.00,,---,0.00,VWS V14.01,2013-03-23 05:45:00,
2013-03-22 22:50:00,50.4,-6.3,29.62,SW,220,0.0,0.0,9,0.00,,---,0.00,VWS V14.01,2013-03-23 05:50:00,
2013-03-22 22:56:00,49.3,-7.2,29.62,SW,225,0.0,0.0,9,0.00,,---,0.00,VWS V14.01,2013-03-23 05:56:00,
2013-03-22 23:01:00,48.7,-7.6,29.62,SW,216,0.0,0.0,9,0.00,,---,0.00,VWS V14.01,2013-03-23 06:01:00,
2013-03-22 23:07:00,48.7,-7.6,29.62,SW,217,0.0,0.0,9,0.00,,---,0.00,VWS V14.01,2013-03-23 06:07:00,
2013-03-22 23:12:00,48.6,-7.7,29.62,South,187,0.0,0.0,9,0.00,,---,0.00,VWS V14.01,2013-03-23 06:12:00,
2013-03-22 23:17:00,47.7,-8.4,29.62,South,187,0.0,0.0,9,0.00,,---,0.00,VWS V14.01,2013-03-23 06:17:00,
2013-03-22 23:22:00,48.4,-7.8,29.62,South,187,0.0,0.0,9,0.00,,---,0.00,VWS V14.01,2013-03-23 06:22:00,
2013-03-22 23:27:00,48.6,-7.7,29.62,SW,218,0.0,0.0,9,0.00,,---,0.00,VWS V14.01,2013-03-23 06:27:00,
2013-03-22 23:32:00,48.7,-7.6,29.62,SE,127,0.0,0.0,9,0.00,,---,0.00,VWS V14.01,2013-03-23 06:32:00,
2013-03-22 23:38:00,48.9,-7.4,29.62,SE,139,0.0,0.0,9,0.00,,---,0.00,VWS V14.01,2013-03-23 06:38:00,
2013-03-22 23:43:00,49.3,-7.2,29.62,South,187,0.0,0.0,9,0.00,,---,0.00,VWS V14.01,2013-03-23 06:43:00,
2013-03-22 23:48:00,49.1,-7.3,29.62,East,84,0.0,0.0,9,0.00,,---,0.00,VWS V14.01,2013-03-23 06:48:00,
2013-03-22 23:53:00,47.8,-8.3,29.65,SW,231,5.8,5.8,9,0.00,,---,0.00,VWS V14.01,2013-03-23 06:53:00,
2013-03-22 23:59:00,48.2,-8.0,29.65,SW,224,0.0,0.0,9,0.00,,---,0.00,VWS V14.01,2013-03-23 06:59:00,